(269687) = 1996 GR6

Discovered at Kitt Peak on 1996-04-12 by Spacewatch.

Orbit

Orbit type: Main Belt

Note: WebGL enabled browser required.

epoch2023-09-13.0
epoch JD2460200.5
perihelion date2022-07-24.04783
perihelion JD2459784.54783
argument of perihelion (°)162.08723
ascending node (°)73.84124
inclination (°)3.02942
eccentricity0.1306470
perihelion distance (AU)2.0843908
Tisserand w.r.t. Jupiter3.5
ΔV w.r.t. Earth (km/sec)9.0
semimajor axis (AU)2.3976347
mean anomaly (°)110.42635
mean daily motion (°/day)0.26547850
aphelion distance (AU)2.711
period (years)3.71
P-vector [x]-0.55981467
P-vector [y]-0.76656142
P-vector [z]-0.31462853
Q-vector [x]0.82706159
Q-vector [y]-0.49365620
Q-vector [z]-0.26883579
absolute magnitude17.14
phase slope0.15
uncertainty0
referenceMPO 778929
observations used389
oppositions14
arc length (days)10072
first opposition used1996
last opposition used2023
residual rms (arc-secs)0.77
perturbers coarse indicatorM-v
perturbers precise indicator003Ek
first observation date used1996-04-12.0
last observation date used2023-11-09.0
computer nameMPCLINUX
JD of orbit computation2456700.228040
perihelion JD uncertainty (days)8.2098E-05
argument of perihelion uncertainty (°)9.7245E-05
ascending node uncertainty (°)9.5106E-05
inclination uncertainty (°)4.6752E-06
eccentricity uncertainty 6.0702E-08
perihelion distance uncertainty (AU)1.4460E-07
Minimum Orbit Intersection Distances (in AU)
for orbit epoch: 2460200.5, reference: E2023-VG7
Mercury1.62322
Venus1.35983
Earth1.07204
Mars0.51105
Jupiter2.27822
Saturn6.37694
Uranus16.1158
Neptune27.1489

Observations

393 total observations over interval: 1996 04 12.23106 – 2023 11 09.295964
These data are available for download (format description).

Date (UT) J2000 RA J2000 Dec Magn Location Ref
1996 04 12.23106 12 54 41.41 -00 42 15.3 19.8 V 691 – Steward Observatory, Kitt Peak-Spacewatch MPC 27215
1996 04 12.23751 12 54 41.05 -00 42 13.6   691 – Steward Observatory, Kitt Peak-Spacewatch MPC 27215
1996 04 12.24392 12 54 40.69 -00 42 12.1   691 – Steward Observatory, Kitt Peak-Spacewatch MPC 27215
1996 04 18.23462 12 49 25.55 -00 19 16.3 19.6 V 691 – Steward Observatory, Kitt Peak-Spacewatch MPC 27215
1996 04 18.25563 12 49 24.43 -00 19 12.0   691 – Steward Observatory, Kitt Peak-Spacewatch MPC 27215
1996 04 18.28287 12 49 22.99 -00 19 06.6   691 – Steward Observatory, Kitt Peak-Spacewatch MPC 27215
1996 04 23.22316 12 45 28.29 -00 04 26.6 20.0 V 691 – Steward Observatory, Kitt Peak-Spacewatch MPC 27215
1996 04 23.24402 12 45 27.29 -00 04 23.2   691 – Steward Observatory, Kitt Peak-Spacewatch MPC 27215
1996 04 23.26476 12 45 26.30 -00 04 19.9   691 – Steward Observatory, Kitt Peak-Spacewatch MPC 27215
2005 10 25.38474 04 08 33.03 +19 18 02.9 20.9 V G96 – Mt. Lemmon Survey MPS 180697
2005 10 25.39010 04 08 32.78 +19 18 02.6 20.5 V G96 – Mt. Lemmon Survey MPS 180697
2005 10 25.39546 04 08 32.56 +19 18 02.0 21.0 V G96 – Mt. Lemmon Survey MPS 180697
2005 10 25.40081 04 08 32.35 +19 18 01.9 20.7 V G96 – Mt. Lemmon Survey MPS 180697
2005 11 01.41180 04 03 00.23 +19 07 04.6 21.1 V 691 – Steward Observatory, Kitt Peak-Spacewatch MPS 180697
2005 11 01.42927 04 02 59.30 +19 07 02.2 21.0 V 691 – Steward Observatory, Kitt Peak-Spacewatch MPS 180697
2005 11 01.44667 04 02 58.34 +19 07 00.7 21.1 V 691 – Steward Observatory, Kitt Peak-Spacewatch MPS 180697
2005 11 12.31567 03 52 33.07 +18 44 56.0 21.0 V 691 – Steward Observatory, Kitt Peak-Spacewatch MPS 180697
2005 11 12.33303 03 52 31.96 +18 44 53.1 20.6 V 691 – Steward Observatory, Kitt Peak-Spacewatch MPS 180697
2005 11 12.35039 03 52 30.88 +18 44 51.1 20.9 V 691 – Steward Observatory, Kitt Peak-Spacewatch MPS 180697
2005 12 04.25064 03 29 51.72 +17 52 50.9 20.7 V G96 – Mt. Lemmon Survey MPS 180697
2005 12 04.25669 03 29 51.36 +17 52 50.0 21.0 V G96 – Mt. Lemmon Survey MPS 180697
2005 12 04.26278 03 29 51.00 +17 52 49.4 21.1 V G96 – Mt. Lemmon Survey MPS 180697
2005 12 04.26887 03 29 50.64 +17 52 48.6 21.0 V G96 – Mt. Lemmon Survey MPS 180697
2007 02 26.26462 11 55 02.96 +06 17 42.6 19.6 V G96 – Mt. Lemmon Survey MPS 201398
2007 02 26.27236 11 55 02.60 +06 17 45.4 20.1 V G96 – Mt. Lemmon Survey MPS 201398
2007 02 26.28015 11 55 02.28 +06 17 48.5 20.1 V G96 – Mt. Lemmon Survey MPS 201398
2007 02 26.28795 11 55 01.88 +06 17 51.1 19.9 V G96 – Mt. Lemmon Survey MPS 201399
2007 03 09.26454 11 46 04.83 +07 24 15.2 19.6 V 703 – Catalina Sky Survey MPS 202272
2007 03 09.27269 11 46 04.33 +07 24 17.7 19.2 V 703 – Catalina Sky Survey MPS 202272
2007 03 09.28079 11 46 03.90 +07 24 20.6 19.4 V 703 – Catalina Sky Survey MPS 202272
2007 03 09.28890 11 46 03.43 +07 24 24.5 18.9 V 703 – Catalina Sky Survey MPS 202272
2007 03 09.42099 11 45 56.05 +07 25 12.4 19.5 R 644 – Palomar Mountain/NEAT MPS 202835
2007 03 09.44126 11 45 54.90 +07 25 19.9 19.3 R 644 – Palomar Mountain/NEAT MPS 202835
2007 03 09.46165 11 45 53.75 +07 25 27.3 19.6 R 644 – Palomar Mountain/NEAT MPS 202835
2007 03 10.22518 11 45 12.71 +07 30 09.0 19.9 V 691 – Steward Observatory, Kitt Peak-Spacewatch MPS 202272
2007 03 10.24277 11 45 11.72 +07 30 15.5 20.0 V 691 – Steward Observatory, Kitt Peak-Spacewatch MPS 202272
2007 03 10.26035 11 45 10.71 +07 30 22.1 19.9 V 691 – Steward Observatory, Kitt Peak-Spacewatch MPS 202272
2007 03 11.59492 11 43 57.33 +07 38 31.9 19.6 R D29 – Purple Mountain Observatory, XuYi Station MPS 205476
2007 03 11.62073 11 43 55.86 +07 38 42.4 19.3 R D29 – Purple Mountain Observatory, XuYi Station MPS 205476
2007 03 11.64746 11 43 54.32 +07 38 51.8 19.3 R D29 – Purple Mountain Observatory, XuYi Station MPS 205476
2007 03 11.67442 11 43 52.78 +07 39 01.8 19.5 R D29 – Purple Mountain Observatory, XuYi Station MPS 205476
2007 03 14.11515 11 41 36.65 +07 53 47.4 20.1 V 691 – Steward Observatory, Kitt Peak-Spacewatch MPS 202835
2007 03 14.13277 11 41 35.65 +07 53 53.7 20.1 V 691 – Steward Observatory, Kitt Peak-Spacewatch MPS 202835
2007 03 14.15039 11 41 34.61 +07 54 00.1 19.9 V 691 – Steward Observatory, Kitt Peak-Spacewatch MPS 202835
2007 03 14.22363 11 41 30.47 +07 54 26.0 19.1 R 699 – Lowell Observatory-LONEOS MPS 202835
2007 03 14.24740 11 41 29.00 +07 54 35.8   699 – Lowell Observatory-LONEOS MPS 202835
2007 03 14.27116 11 41 27.65 +07 54 43.4   699 – Lowell Observatory-LONEOS MPS 202835
2007 03 14.29494 11 41 26.25 +07 54 51.0   699 – Lowell Observatory-LONEOS MPS 202835
2007 03 14.32723 11 41 24.28 +07 55 03.9 18.9 V G96 – Mt. Lemmon Survey MPS 202835
2007 03 14.33613 11 41 23.78 +07 55 07.1 18.8 V G96 – Mt. Lemmon Survey MPS 202835
2007 03 14.34527 11 41 23.20 +07 55 10.3 18.8 V G96 – Mt. Lemmon Survey MPS 202835
2007 03 14.35438 11 41 22.70 +07 55 13.6 18.8 V G96 – Mt. Lemmon Survey MPS 202835
2007 04 07.22080 11 20 56.43 +09 41 03.7 20.5 V 703 – Catalina Sky Survey MPS 206110
2007 04 07.22728 11 20 56.25 +09 41 03.9 19.5 V 703 – Catalina Sky Survey MPS 206110
2007 04 07.23374 11 20 56.04 +09 41 08.1 19.9 V 703 – Catalina Sky Survey MPS 206110
2007 04 07.24020 11 20 55.68 +09 41 06.2 20.1 V 703 – Catalina Sky Survey MPS 206110
2009 12 10.38819 05 48 56.19 +24 15 53.1 20.8 V G96 – Mt. Lemmon Survey MPS 307195
2009 12 10.39464 05 48 55.83 +24 15 52.9 20.7 V G96 – Mt. Lemmon Survey MPS 307195
2009 12 10.40122 05 48 55.36 +24 15 53.8 20.2 V G96 – Mt. Lemmon Survey MPS 307195
2009 12 10.40763 05 48 54.93 +24 15 53.6 20.5 V G96 – Mt. Lemmon Survey MPS 307195
2011 03 04.50248 15 11 53.16 -14 29 01.5 20.4 V G96 – Mt. Lemmon Survey MPS 371924
2011 03 04.50718 15 11 53.34 -14 29 01.8 20.4 V G96 – Mt. Lemmon Survey MPS 371924
2011 03 04.51184 15 11 53.55 -14 29 02.9 20.5 V G96 – Mt. Lemmon Survey MPS 371924
2011 03 04.51646 15 11 53.73 -14 29 04.1 20.2 V G96 – Mt. Lemmon Survey MPS 371924
2011 04 01.46655 15 20 36.85 -14 58 03.8 19.9 V 691 – Steward Observatory, Kitt Peak-Spacewatch MPS 375460
2011 04 01.48432 15 20 36.62 -14 58 02.7 20.1 V 691 – Steward Observatory, Kitt Peak-Spacewatch MPS 375460
2011 04 01.50555 15 20 36.39 -14 58 02.3 20.1 V 691 – Steward Observatory, Kitt Peak-Spacewatch MPS 375460
2011 04 26.48886 15 07 05.72 -14 22 37.8 18.7 R D96 – Tzec Maun Observatory, Moorook MPS 381108
2011 04 26.50023 15 07 05.10 -14 22 36.5 18.9 R D96 – Tzec Maun Observatory, Moorook MPS 381108
2011 04 26.51156 15 07 04.49 -14 22 34.7 18.7 R D96 – Tzec Maun Observatory, Moorook MPS 381108
2011 04 28.32650 15 05 28.75 -14 18 44.2 18.9 V 703 – Catalina Sky Survey MPS 381108
2011 04 28.33782 15 05 28.06 -14 18 43.0 19.9 V 703 – Catalina Sky Survey MPS 381108
2011 04 28.34915 15 05 27.38 -14 18 41.0 19.0 V 703 – Catalina Sky Survey MPS 381108
2011 04 28.36042 15 05 26.70 -14 18 39.7 20.0 V 703 – Catalina Sky Survey MPS 381108
2011 05 03.30247 15 00 53.64 -14 07 29.2 18.9 V G96 – Mt. Lemmon Survey MPS 382072
2011 05 03.30991 15 00 53.17 -14 07 28.1 18.8 V G96 – Mt. Lemmon Survey MPS 382072
2011 05 03.31741 15 00 52.74 -14 07 27.3 18.9 V G96 – Mt. Lemmon Survey MPS 382072
2011 05 03.32493 15 00 52.27 -14 07 26.1 19.0 V G96 – Mt. Lemmon Survey MPS 382072
2011 05 08.29246 14 56 07.04 -13 56 16.2 19.0   704 – Lincoln Laboratory ETS, New Mexico MPS 383002
2011 05 08.30255 14 56 06.34 -13 56 13.9 19.4   704 – Lincoln Laboratory ETS, New Mexico MPS 383002
2011 05 08.31236 14 56 05.85 -13 56 12.2 19.2 V 703 – Catalina Sky Survey MPS 383002
2011 05 08.31941 14 56 05.38 -13 56 12.7 19.2 V 703 – Catalina Sky Survey MPS 383002
2011 05 08.32638 14 56 05.02 -13 56 11.0 19.1 V 703 – Catalina Sky Survey MPS 383002
2011 05 08.33331 14 56 04.52 -13 56 10.4 18.9 V 703 – Catalina Sky Survey MPS 383002
2011 05 08.33359 14 56 04.55 -13 56 09.5 19.2   704 – Lincoln Laboratory ETS, New Mexico MPS 383002
2011 05 20.27866 14 45 05.43 -13 33 35.3 19.4 V 703 – Catalina Sky Survey MPS 383273
2011 05 20.28659 14 45 04.96 -13 33 34.1 19.3 V 703 – Catalina Sky Survey MPS 383273
2011 05 20.29452 14 45 04.71 -13 33 34.4 19.4 V 703 – Catalina Sky Survey MPS 383273
2011 05 20.30242 14 45 04.17 -13 33 34.0 18.9 V 703 – Catalina Sky Survey MPS 383273
